This is the latest recevied weather packets stored in our database for station/object JH7UAX-10. If no packets are shown the sender has not sent any weather packets the latest 10 day(s).
| Time | Temp. | Humidity | Pressure | Rain* | Wind** | Luminosity | Snow |
|---|---|---|---|---|---|---|---|
| 1777912679 | 7.78° C | 84% | 1021.7 hPa | 0 mm | - | - | - |
| 1777911778 | 8.33° C | 82% | 1021.6 hPa | 0 mm | - | - | - |
| 1777910878 | 8.33° C | 82% | 1021.2 hPa | 0 mm | - | - | - |
| 1777910406 | 7.78° C | 85% | 1021.2 hPa | 0 mm | - | - | - |
| 1777909978 | 7.78° C | 86% | 1021 hPa | 0 mm | - | - | - |
| 1777909506 | 7.78° C | 85% | 1021 hPa | 0.25 mm | - | - | - |
| 1777909078 | 7.78° C | 86% | 1020.5 hPa | 0.51 mm | - | - | - |
| 1777908177 | 7.78° C | 85% | 1020.1 hPa | 0.51 mm | - | - | - |
| 1777907706 | 7.78° C | 86% | 1019.9 hPa | 0.51 mm | - | - | - |
| 1777907279 | 7.78° C | 87% | 1019.4 hPa | 0.51 mm | - | - | - |
| 1777906379 | 7.78° C | 87% | 1019 hPa | 0.51 mm | - | - | - |
| 1777905905 | 7.78° C | 87% | 1019 hPa | 0.25 mm | - | - | - |
| 1777905479 | 7.78° C | 87% | 1018.7 hPa | 0 mm | - | - | - |
| 1777904579 | 7.78° C | 88% | 1018.1 hPa | 0 mm | - | - | - |
| 1777903678 | 7.78° C | 85% | 1017.4 hPa | 0 mm | - | - | - |
| 1777903206 | 7.78° C | 84% | 1017.2 hPa | 0 mm | - | - | - |
| 1777902778 | 7.78° C | 85% | 1016.9 hPa | 0 mm | - | - | - |
| 1777902306 | 7.78° C | 87% | 1016.8 hPa | 0 mm | - | - | - |
| 1777901878 | 7.78° C | 86% | 1016.7 hPa | 0 mm | - | - | - |
| 1777900978 | 7.78° C | 87% | 1016.2 hPa | 0 mm | - | - | - |
| 1777900077 | 7.78° C | 87% | 1015.8 hPa | 0 mm | - | - | - |
| 1777899179 | 7.78° C | 90% | 1015.1 hPa | 0 mm | - | - | - |
| 1777898705 | 7.78° C | 90% | 1014.9 hPa | 0 mm | - | - | - |
| 1777898279 | 7.78° C | 90% | 1014.5 hPa | 0 mm | - | - | - |
| 1777897805 | 7.78° C | 89% | 1014.1 hPa | 0 mm | - | - | - |
* Rain latest hour (hover to see other rain measurements)
** Current wind speed in m/s (hover to see current wind gust speed)